Regional Weather Roundup
Issued by NWS

Home | Current Version | Previous Version | Text Only | Print | Product List | Glossary On
Versions: 1 2 3 4 5 6 7 8 9 10 11 12 13 14 15 16 17 18 19 20 21 22 23 24 25 26 27 28 29 30 31 32 33 34 35 36 37 38 39 40 41 42 43 44 45 46 47 48 49 50
000
ASUS46 KSTO 161409
RWRCA

NORTHERN AND CENTRAL CA REGIONAL WEATHER ROUNDUP
NATIONAL WEATHER SERVICE SACRAMENTO CA
700 AM PDT WED APR 16 2014

NOTE: FAIR INDICATES FEW OR NO CLOUDS BELOW 12,000 FEET WITH NO
SIGNIFICANT WEATHER AND/OR OBSTRUCTIONS TO VISIBILITY.

CAZ001-003-161500-
NORTHWEST AREA

CITY           SKY/WX    TMP DP  RH WIND       PRES   REMARKS
CRESCENT CITY  PTCLDY    47  44  90 N5        30.12R
ARCATA         NOT AVBL
SHELTER COVE   NOT AVBL
UKIAH          CLEAR     46  41  82 CALM      29.95R
$$

CAZ006-505>513-161500-
BAY AREA

CITY           SKY/WX    TMP DP  RH WIND       PRES   REMARKS
SANTA ROSA     CLEAR     44  44 100 MISG      29.90R
SAN RAFAEL     N/A       50  MM  MM MISG
NAPA           PTCLDY    45  44  97 CALM      29.91R FOG
CONCORD        CLEAR     52  48  86 S3        29.91R
OAKLAND CITY   N/A       54  MM  MM MISG
OAKLAND        CLEAR     51  45  79 NE3       29.92R
SAN FRAN CITY  N/A       52  MM  82 MISG
SAN FRAN ARPT  CLEAR     52  47  83 W5        29.92R
LIVERMORE      CLEAR     50  47  89 CALM      29.91R
HAYWARD        CLEAR     49  47  93 NE7       29.92R
REDWOOD CITY   N/A       MM  MM  MM MISG
MOFFETT ARPT   CLEAR     53  46  77 CALM      29.93R
SAN JOSE ARPT  PTCLDY    51  47  86 SE3       29.92R
$$
CAZ034-037-514>518-161500-
CENTRAL COAST

CITY           SKY/WX    TMP DP  RH WIND       PRES   REMARKS
WATSONVILLE    CLOUDY    51  49  92 CALM      29.92S FOG
SALINAS        CLOUDY    52  48  87 SW3       29.92S
MONTEREY       CLOUDY    53  47  79 S5        29.93S
PT PIEDRAS BLS NOT AVBL
SAN LUIS OBISP FOG       50  48  93 CALM      29.89R VSB 1/4
SANTA MARIA    CLOUDY    50  47  89 S7        29.90R FOG
$$
CAZ015-016-161500-
NORTHERN SACRAMENTO VALLEY

CITY           SKY/WX    TMP DP  RH WIND       PRES   REMARKS
REDDING        CLEAR     61  32  33 NW9       29.92S
RED BLUFF      CLEAR     62  35  36 NW14      29.91S
OROVILLE       CLEAR     53  48  83 CALM      29.89R
$$
CAZ016>018-161500-
SOUTHERN SACRAMENTO VALLEY

CITY           SKY/WX    TMP DP  RH WIND       PRES   REMARKS
AUBURN         CLEAR     54  39  58 CALM      29.89R
BEALE AFB      CLEAR     52  46  79 E2        29.86S
LINCOLN        FAIR      45  43  93 NE5       29.86F
MARYSVILLE     CLEAR     52  48  86 CALM      29.87R
SAC INTL ARPT  CLEAR     48  46  93 CALM      29.87R
MATHER AIRPORT CLEAR     48  48 100 CALM      29.88R
DOWNTOWN SAC   N/A       54  MM  MM MISG
SAC EXEC ARPT  CLEAR     50  49  96 CALM      29.88R
VACAVILLE      CLEAR     50  48  93 CALM      29.89R
TRAVIS AFB     CLEAR     52  52 100 SW9       29.88R
$$
CAZ019>021-161500-
SAN JOAQUIN VALLEY

CITY           SKY/WX    TMP DP  RH WIND       PRES   REMARKS
STOCKTON       CLEAR     52  48  86 NW6       29.87R
MODESTO        CLEAR     56  48  74 N7        29.86R
MERCED         CLEAR     55  49  80 NW8       29.85R
LEMOORE        CLEAR    N/A N/A N/A S3        29.87R
FRESNO         PTCLDY    57  48  72 NW3       29.86R
HANFORD        CLEAR     50  46  86 SW3       29.86S
PORTERVILLE    CLEAR     48  37  66 SE3       29.87S
BAKERSFIELD    CLEAR     59  39  47 SE5       29.88R
$$
CAZ011-012-071-161500-
NORTHERN MOUNTAINS

CITY           SKY/WX    TMP DP  RH WIND       PRES   REMARKS
YREKA          CLEAR     37  31  78 SE3       30.09S
MOUNT SHASTA   CLEAR     42  29  59 VRB6      30.04S
ALTURAS        CLEAR     38  28  67 CALM      30.05R
$$
CAZ011-012-071-161500-
SIERRA NEVADA MTNS

CITY           SKY/WX    TMP DP  RH WIND       PRES   REMARKS
BLUE CANYON    CLEAR     51  27  39 NE3       30.01R
TRUCKEE        PTCLDY    28  27  93 CALM      30.05R
TAHOE VLY ARPT CLEAR     30  22  72 S3        30.04R
MAMMOTH LAKES  FAIR      34  25  69 SE3       30.04S
$$




USA.gov is the U.S. government's official web portal to all federal, state and local government web resources and services.